Flag for Thailand Weather past 2 weeks in Phuket, Thailand

Now
86 °F

Partly sunny.


Feels Like: 95 °F
Forecast: 75 / 86 °F
Wind: 6 mph from Northeast

Location: Phuket Airport

Current Time: Oct 25, 2014 at 10:44:12 AM

Latest Report: Oct 25, 2014 at 10:00 AM


Visibility: N/A

Pressure: 29.92 "Hg

Humidity: 70%

Dew point: 75 °F

Location of PhuketLocation

Historic Weather in Phuket — Graph

°F

Phuket temperature yesterday

Maximum temperature yesterday: 88 °F (at 10:30 AM)
Minimum temperature yesterday: 75 °F (at 6:30 AM)
Average temperature yesterday: 81 °F

Past Weeks' High & Low Weather Summary

 TemperatureHumidityPressure
High90 °F (Oct 10, 11:30 AM)94% (Oct 11, 5:00 AM)29.98 "Hg (Oct 11, 5:00 AM)
Low73 °F (Oct 13, 7:00 PM)52% (Oct 11, 11:30 AM)29.77 "Hg (Oct 10, 3:30 PM)
Average81 °F79%29.86 "Hg
* Reported Oct 10 9:00 AM — Oct 25 9:30 AM, Phuket, Weather by CustomWeather, © 2014

Note: Actual official high and low records may vary slightly from our data, if they occured in-between our weather recording intervals... More about our weather records

Advertising

Phuket weather history for previous 24 hours

 ConditionsComfort  
Time TempWeatherWind HumidityBarometerVisibility
9:30 AM
Oct 25
84 °FPartly sunny.3 mph70%29.92 "HgN/A
9:00 AM84 °FPartly sunny.3 mph74%29.92 "HgN/A
8:30 AM82 °FPartly sunny.3 mph79%29.89 "Hg6 mi
8:00 AM82 °FPartly sunny.No wind79%29.89 "Hg5 mi
7:30 AM79 °FPartly sunny.No wind89%29.89 "Hg5 mi
7:00 AM77 °FPartly sunny.No wind94%29.89 "Hg5 mi
6:30 AM75 °FPartly sunny.3 mph94%29.86 "Hg5 mi
6:00 AM75 °FPartly cloudy.No wind94%29.86 "Hg5 mi
5:30 AM77 °FPartly cloudy.No wind89%29.83 "Hg5 mi
4:00 AM77 °FPartly cloudy.No wind89%29.83 "Hg5 mi
3:30 AM77 °FPartly cloudy.No wind94%29.83 "Hg5 mi
3:00 AM77 °FPartly cloudy.No wind94%29.83 "Hg5 mi
2:30 AM77 °FPartly cloudy.No wind94%29.83 "Hg5 mi
2:00 AM77 °FPartly cloudy.No wind94%29.83 "Hg5 mi
1:30 AM77 °FPartly cloudy.No wind94%29.86 "Hg5 mi
1:00 AM77 °FPartly cloudy.No wind94%29.86 "Hg5 mi
12:30 AM77 °FPartly cloudy.No wind94%29.89 "Hg5 mi
12:00 AM79 °FPartly cloudy.No wind89%29.89 "Hg5 mi
11:30 PM
Oct 24
79 °FPartly cloudy.No wind89%29.89 "Hg5 mi
11:00 PM79 °FPartly cloudy.No wind89%29.89 "Hg5 mi
10:30 PM79 °FPartly cloudy.No wind89%29.92 "Hg5 mi
10:00 PM79 °FPartly cloudy.No wind89%29.89 "Hg5 mi
9:30 PM79 °FPartly cloudy.3 mph89%29.89 "Hg5 mi
9:00 PM79 °FPartly cloudy.5 mph89%29.89 "Hg5 mi
8:30 PM79 °FPartly cloudy.3 mph89%29.89 "Hg6 mi
8:00 PM81 °FPartly cloudy.3 mph84%29.86 "Hg6 mi
7:30 PM79 °FPartly cloudy.3 mph89%29.86 "Hg6 mi
7:00 PM81 °FPartly cloudy.No wind84%29.83 "Hg6 mi
6:30 PM82 °FPartly cloudy.2 mph74%29.80 "Hg6 mi
6:00 PM82 °FBroken clouds.3 mph74%29.80 "Hg6 mi
5:30 PM84 °FBroken clouds.3 mph70%29.80 "Hg6 mi
5:00 PM84 °FBroken clouds.8 mph70%29.77 "Hg6 mi
4:30 PM84 °FBroken clouds.9 mph74%29.77 "Hg6 mi
4:00 PM84 °FBroken clouds.12 mph70%29.77 "Hg6 mi
2:30 PM86 °FBroken clouds.12 mph70%29.80 "Hg6 mi
2:00 PM86 °FBroken clouds.12 mph70%29.83 "Hg6 mi
1:30 PM84 °FBroken clouds.13 mph74%29.83 "Hg6 mi
1:00 PM84 °FBroken clouds.13 mph74%29.86 "Hg6 mi
12:30 PM86 °FBroken clouds.14 mph70%29.86 "HgN/A
12:00 PM86 °FBroken clouds.13 mph70%29.89 "HgN/A
11:30 AM86 °FPartly sunny.13 mph70%29.89 "HgN/A
11:00 AM86 °FPartly sunny.13 mph62%29.92 "HgN/A
10:30 AM88 °FScattered clouds.12 mph62%29.92 "HgN/A
10:00 AM86 °FScattered clouds.2 mph62%29.92 "HgN/A
Weather by CustomWeather, © 2014

See weather overviewHow to use our weather pages